Hourly Data Report for April 28, 2017

MIRAMICHI RCS
NEW BRUNSWICK

47°00'34.000" N
65°27'54.000" W
33.00 m
8100989
71744
ACQ

Download Data

Hourly Data (April 2017)
Hourly Data Report for April 28, 2017
TIME
LST
Temp Definition
°C
Dew Point Definition
°C
Rel Hum Definition
%
Precip. Amount Definition
mm

Wind Dir Definition
10's deg

Wind Spd Definition
km/h
Visibility Definition
km
Stn Press Definition
kPa
Hmdx Definition


Wind Chill Definition


Weather Definition


00:00 1.7 1.4 98 0.0 2 7   101.39     LegendNANA
01:00 1.6 1.3 98 0.2 2 7   101.31     LegendNANA
02:00 1.5 1.2 98 0.0 2 6   101.29     LegendNANA
03:00 1.5 1.2 98 0.0 35 3   101.28     LegendNANA
04:00 1.5 1.2 98 0.0 36 4   101.23     LegendNANA
05:00 1.4 1.1 98 0.0 33 4   101.20     LegendNANA
06:00 1.5 1.2 98 0.2 29 5   101.21     LegendNANA
07:00 2.0 1.6 97 0.0 34 2   101.22     LegendNANA
08:00 2.6 2.0 96 0.0 31 4   101.21     LegendNANA
09:00 4.0 3.0 94 0.0   0   101.17     LegendNANA
10:00 6.0 4.8 93 0.0 23 5   101.15     LegendNANA
11:00 7.7 6.2 90 0.0 21 5   101.08     LegendNANA
12:00 9.6 7.7 88 0.0 23 9   101.05     LegendNANA
13:00 12.4 10.0 85 0.0 21 11   100.97     LegendNANA
14:00 12.5 9.9 85 0.0 24 12   100.97     LegendNANA
15:00 11.6 9.7 89 0.0 25 13   100.94     LegendNANA
16:00 11.9 10.2 90 0.0 24 13   100.91     LegendNANA
17:00 11.7 10.4 92 0.0 24 12   100.86     LegendNANA
18:00 11.9 11.0 94 0.0 24 9   100.81     LegendNANA
19:00 11.3 10.7 96 0.0 26 5   100.81     LegendNANA
20:00 10.9 10.6 98 0.0 25 7   100.81     LegendNANA
21:00 10.8 10.5 99 0.2 24 11   100.82     LegendNANA
22:00 10.6 10.4 99 1.1 26 5   100.74     LegendNANA
23:00 10.8 10.6 99 0.0 26 10   100.74     LegendNANA

Notes on Data Quality.

Legend

  • E = Estimated
  • M = Missing
  • NA = Not Available*
  • [empty] = Indicates an unobserved value
Date modified: